Location: *
(58.7167°N, 26.1833°E)
Time: 04:14:45
(UTC+00:00)

Cosmos 1190 Rocket - Pass Details

Date: 25 August 2019
Orbit: 757 x 780 km, 74.1° (Epoch: 14 October)

Event Time Altitude Azimuth Distance (km) Brightness Sun altitude
Rises 22:08:50 0° 328° (NNW) 3,278 8.3 -20.7°
Reaches altitude 10° 22:11:14 10° 327° (NNW) 2,348 7.3 -20.7°
Maximum altitude 22:16:34 77° 243° (WSW) 808 4.0 -20.7°
Enters shadow 22:18:18 44° 167° (SSE) 1,081 4.3 -20.7°
